Hourly Weather Luboń

Today, 8 July, Wednesday

Time Temperature Precipitation Wind Pressure Humidity
00:00 +13°C° 0.1 mm 2 mps 741 mmHg 81%
01:00 +12°C° 0.1 mm 3 mps 741 mmHg 81%
02:00 +13°C° 0.3 mm 2 mps 741 mmHg 86%
03:00 +12°C° 0.3 mm 2 mps 741 mmHg 90%
04:00 +12°C° 0.3 mm 1 mps 741 mmHg 94%
05:00 +12°C° 0.3 mm 2 mps 741 mmHg 94%
06:00 +12°C° 0.3 mm 2 mps 741 mmHg 94%
07:00 +12°C° 0.3 mm 2 mps 740 mmHg 93%
08:00 +12°C° 0.3 mm 2 mps 741 mmHg 93%
09:00 +13°C° 0.3 mm 2 mps 741 mmHg 92%
10:00 +13°C° 0.3 mm 1 mps 741 mmHg 92%
11:00 +13°C° 0.5 mm 1 mps 741 mmHg 93%
12:00 +13°C° 0.5 mm 1 mps 741 mmHg 93%
13:00 +13°C° 0.5 mm 1 mps 740 mmHg 94%
14:00 +13°C° 0.3 mm 1 mps 740 mmHg 94%
15:00 +14°C° 0.3 mm 2 mps 740 mmHg 93%
16:00 +14°C° 0.3 mm 2 mps 740 mmHg 93%
17:00 +14°C° 0.1 mm 2 mps 740 mmHg 93%
18:00 +14°C° 0.1 mm 2 mps 741 mmHg 93%
19:00 +14°C° 0.1 mm 2 mps 741 mmHg 93%
20:00 +13°C° 0 mm 2 mps 741 mmHg 94%
21:00 +12°C° 0 mm 2 mps 741 mmHg 95%
22:00 +12°C° 0 mm 2 mps 741 mmHg 96%
23:00 +10°C° 0 mm 2 mps 742 mmHg 96%

Tomorrow, 9 July, Thursday

Time Temperature Precipitation Wind Pressure Humidity
00:00 +10°C° 0 mm 2 mps 742 mmHg 96%
01:00 +10°C° 0 mm 2 mps 742 mmHg 96%
02:00 +10°C° 0 mm 2 mps 742 mmHg 96%
03:00 +10°C° 0 mm 2 mps 742 mmHg 95%
04:00 +9°C° 0 mm 2 mps 742 mmHg 95%
05:00 +12°C° 0 mm 2 mps 742 mmHg 92%
06:00 +13°C° 0 mm 2 mps 742 mmHg 89%
07:00 +15°C° 0 mm 1 mps 742 mmHg 87%
08:00 +15°C° 0 mm 2 mps 742 mmHg 84%
09:00 +15°C° 0 mm 2 mps 742 mmHg 81%
10:00 +16°C° 0 mm 2 mps 742 mmHg 79%
11:00 +16°C° 0 mm 2 mps 742 mmHg 79%
12:00 +16°C° 0 mm 3 mps 742 mmHg 79%
13:00 +17°C° 0 mm 3 mps 741 mmHg 79%
14:00 +17°C° 0 mm 3 mps 741 mmHg 79%
15:00 +18°C° 0 mm 3 mps 741 mmHg 79%
16:00 +19°C° 0 mm 3 mps 741 mmHg 78%
17:00 +18°C° 0 mm 2 mps 741 mmHg 82%
18:00 +18°C° 0 mm 2 mps 740 mmHg 86%
19:00 +18°C° 0 mm 1 mps 740 mmHg 90%
20:00 +17°C° 0 mm 2 mps 740 mmHg 91%
21:00 +16°C° 0 mm 2 mps 740 mmHg 92%
22:00 +16°C° 0 mm 2 mps 740 mmHg 93%
23:00 +16°C° 0 mm 2 mps 740 mmHg 93%

Day after tomorrow, 10 July, Friday

Time Temperature Precipitation Wind Pressure Humidity
00:00 +16°C° 0 mm 2 mps 740 mmHg 93%
01:00 +16°C° 0 mm 2 mps 739 mmHg 93%
02:00 +16°C° 0 mm 3 mps 739 mmHg 93%
03:00 +16°C° 0 mm 3 mps 739 mmHg 92%
04:00 +14°C° 0 mm 3 mps 738 mmHg 91%
05:00 +17°C° 0.1 mm 4 mps 738 mmHg 88%
06:00 +19°C° 0.1 mm 4 mps 738 mmHg 85%
07:00 +20°C° 0.1 mm 5 mps 738 mmHg 82%
08:00 +22°C° 0.4 mm 5 mps 737 mmHg 79%
09:00 +23°C° 0.4 mm 6 mps 737 mmHg 76%
10:00 +24°C° 0.4 mm 6 mps 737 mmHg 72%
11:00 +26°C° 0.4 mm 6 mps 737 mmHg 70%
12:00 +26°C° 0.4 mm 6 mps 737 mmHg 68%
13:00 +26°C° 0.4 mm 6 mps 736 mmHg 66%
14:00 +26°C° 0.7 mm 5 mps 736 mmHg 68%
15:00 +26°C° 0.7 mm 5 mps 736 mmHg 70%
16:00 +26°C° 0.7 mm 4 mps 736 mmHg 73%
17:00 +24°C° 0.5 mm 3 mps 736 mmHg 78%
18:00 +21°C° 0.5 mm 2 mps 736 mmHg 84%
19:00 +21°C° 0.5 mm 1 mps 736 mmHg 90%
20:00 +19°C° 0 mm 2 mps 736 mmHg 89%
21:00 +18°C° 0 mm 2 mps 737 mmHg 89%
22:00 +17°C° 0 mm 3 mps 737 mmHg 89%
23:00 +16°C° 0.2 mm 3 mps 738 mmHg 90%

11 July, Saturday

Time Temperature Precipitation Wind Pressure Humidity
00:00 +15°C° 0.2 mm 4 mps 739 mmHg 92%
01:00 +14°C° 0.2 mm 4 mps 740 mmHg 93%
02:00 +13°C° 0 mm 4 mps 740 mmHg 93%
03:00 +11°C° 0 mm 4 mps 740 mmHg 92%
04:00 +10°C° 0 mm 3 mps 741 mmHg 92%
05:00 +11°C° 0 mm 3 mps 741 mmHg 90%
06:00 +11°C° 0 mm 3 mps 742 mmHg 88%
07:00 +11°C° 0 mm 3 mps 743 mmHg 86%
08:00 +12°C° 0 mm 3 mps 743 mmHg 79%
09:00 +13°C° 0 mm 3 mps 744 mmHg 73%
10:00 +14°C° 0 mm 3 mps 744 mmHg 66%
11:00 +17°C° 0 mm 3 mps 744 mmHg 62%
12:00 +18°C° 0 mm 3 mps 744 mmHg 57%
13:00 +19°C° 0 mm 3 mps 744 mmHg 53%
14:00 +19°C° 0 mm 3 mps 744 mmHg 54%
15:00 +19°C° 0 mm 4 mps 744 mmHg 55%
16:00 +19°C° 0 mm 4 mps 744 mmHg 56%
17:00 +18°C° 0.2 mm 3 mps 744 mmHg 63%
18:00 +17°C° 0.2 mm 3 mps 744 mmHg 69%
19:00 +16°C° 0.2 mm 2 mps 745 mmHg 75%
20:00 +15°C° 0.1 mm 2 mps 745 mmHg 80%
21:00 +13°C° 0.1 mm 2 mps 745 mmHg 84%
22:00 +12°C° 0.1 mm 2 mps 746 mmHg 88%
23:00 +12°C° 0 mm 2 mps 746 mmHg 90%

12 July, Sunday

Time Temperature Precipitation Wind Pressure Humidity
00:00 +10°C° 0 mm 2 mps 746 mmHg 92%
01:00 +10°C° 0 mm 2 mps 746 mmHg 94%
02:00 +9°C° 0 mm 2 mps 746 mmHg 94%
03:00 +9°C° 0 mm 2 mps 747 mmHg 94%
04:00 +9°C° 0 mm 2 mps 747 mmHg 94%
05:00 +10°C° 0 mm 2 mps 747 mmHg 90%
06:00 +12°C° 0 mm 2 mps 747 mmHg 86%
07:00 +12°C° 0 mm 3 mps 748 mmHg 82%
08:00 +13°C° 0 mm 3 mps 748 mmHg 75%
09:00 +16°C° 0 mm 3 mps 748 mmHg 68%
10:00 +17°C° 0 mm 4 mps 748 mmHg 61%
11:00 +18°C° 0.1 mm 4 mps 748 mmHg 58%
12:00 +18°C° 0.1 mm 4 mps 748 mmHg 55%
13:00 +19°C° 0.1 mm 4 mps 748 mmHg 51%
14:00 +19°C° 0 mm 4 mps 748 mmHg 52%
15:00 +19°C° 0 mm 4 mps 748 mmHg 53%
16:00 +19°C° 0 mm 3 mps 748 mmHg 54%
17:00 +18°C° 0 mm 3 mps 748 mmHg 58%
18:00 +17°C° 0 mm 2 mps 748 mmHg 62%
19:00 +16°C° 0 mm 2 mps 748 mmHg 67%
20:00 +15°C° 0 mm 1 mps 748 mmHg 71%
21:00 +13°C° 0 mm 1 mps 748 mmHg 75%
22:00 +10°C° 0 mm 0 mps 748 mmHg 79%
23:00 +11°C° 0 mm 1 mps 748 mmHg 80%

13 July, Monday

Time Temperature Precipitation Wind Pressure Humidity
00:00 +11°C° 0 mm 1 mps 748 mmHg 80%
01:00 +11°C° 0 mm 1 mps 748 mmHg 81%
02:00 +10°C° 0 mm 1 mps 748 mmHg 82%
03:00 +10°C° 0 mm 1 mps 748 mmHg 83%
04:00 +10°C° 0 mm 1 mps 747 mmHg 84%
05:00 +12°C° 0 mm 1 mps 748 mmHg 78%
06:00 +14°C° 0 mm 1 mps 748 mmHg 73%
07:00 +15°C° 0 mm 1 mps 748 mmHg 67%
08:00 +18°C° 0 mm 1 mps 748 mmHg 63%
09:00 +19°C° 0 mm 1 mps 748 mmHg 58%
10:00 +21°C° 0 mm 1 mps 748 mmHg 54%
11:00 +21°C° 0 mm 1 mps 747 mmHg 53%
12:00 +22°C° 0 mm 1 mps 747 mmHg 52%
13:00 +22°C° 0 mm 1 mps 746 mmHg 52%
14:00 +22°C° 0 mm 1 mps 746 mmHg 52%
15:00 +22°C° 0 mm 1 mps 746 mmHg 52%
16:00 +22°C° 0 mm 1 mps 745 mmHg 52%
17:00 +21°C° 0 mm 1 mps 745 mmHg 58%
18:00 +20°C° 0 mm 1 mps 744 mmHg 64%
19:00 +19°C° 0 mm 1 mps 744 mmHg 70%
20:00 +18°C° 0 mm 1 mps 744 mmHg 73%
21:00 +16°C° 0 mm 2 mps 744 mmHg 76%
22:00 +15°C° 0 mm 2 mps 744 mmHg 79%
23:00 +14°C° 0 mm 2 mps 744 mmHg 81%
Show more